Miscellaneous Local Product
Issued by NWS North Platte, NE

Home | Current Version | Previous Version | Text Only | Print | Product List | Glossary On
Versions: 1 2 3 4 5 6 7 8 9 10 11 12 13 14 15 16 17 18 19 20 21 22 23 24 25 26 27 28 29 30 31 32 33 34 35 36 37 38 39 40 41 42 43 44 45 46 47 48 49 50
000
AXUS43 KLBF 240810
MISLBF


WESTERN AND NORTH CENTRAL NEBRASKA HOURLY WEATHER ROUNDUP
NATIONAL WEATHER SERVICE NORTH PLATTE NE
300 AM CDT THU MAY 24 2018

NOTE: "FAIR" INDICATES FEW OR NO CLOUDS BELOW 12,000 FEET WITH NO
SIGNIFICANT WEATHER AND/OR OBSTRUCTIONS TO VISIBILITY.

NOTE: STATIONS NOT REPORTING VARIABLES SUCH AS SKY/WEATHER OR
PRESSURE ARE PROVIDED BY RAWS AND APRS NETWORKS AND ARE NOT UNDER
NATIONAL WEATHER SERVICE QUALITY CONTROL.

...OBSERVATIONS IN AND NEAR THE EASTERN PANHANDLE OF NEBRASKA...

CITY           SKY/WX    TMP DP  RH WIND       PRES   REMARKS
PINE RIDGE     PTCLDY    56  51  84 VRB3      29.96S
GORDON         FAIR      56  51  81 SE6       29.97F
CHADRON        CLEAR     53  51  93 W5        29.97R
ALLIANCE       PTCLDY    54  53  97 CALM      29.98S
SIDNEY         MOCLDY    56  53  90 N9        30.01R
CRESCENT LAKE    N/A     58  53  84 E8          N/A
$$

...OBSERVATIONS IN NORTHERN NEBRASKA AND FAR SOUTHERN SOUTH DAKOTA...

CITY           SKY/WX    TMP DP  RH WIND       PRES   REMARKS
WINNER         RAIN      67  54  63 S21       30.00R
VALENTINE      CLOUDY    63  58  83 E13       29.94F
AINSWORTH      CLOUDY    61  60  96 NE9       30.02F
O`NEILL        CLOUDY    70  58  67 W8        30.03R
THEDFORD       CLOUDY    61  58  89 E14       30.03F
BROKEN BOW     MOCLDY    67  60  78 NE3       29.99F
ORD            MOCLDY    68  62  81 CALM      29.99R
ALBION         CLOUDY    71  65  82 S6        29.99S
VALENTINE NWR    N/A     60  57  89 E9          N/A
HALSEY           N/A     59  59  99 N8G22       N/A
BUTTE            N/A     66  58  76 W12G28      N/A
CHAMBERS         N/A     68  57  68 SW3         N/A
EWING            N/A     70  64  82 W6          N/A
$$

...OBSERVATIONS IN SOUTHWEST NEBRASKA AND FAR NORTHEAST COLORADO...

CITY           SKY/WX    TMP DP  RH WIND       PRES   REMARKS
WRAY           FAIR      68  54  60 S23G30    29.95F
HOLYOKE        FAIR      63  55  77 S9        29.96R
IMPERIAL       CLOUDY    66  59  78 S13       29.95F
OGALLALA       MOCLDY    64  60  87 E7        29.96F
NORTH PLATTE   CLOUDY    68  58  70 SE8       29.97F
MCCOOK         CLOUDY    67  58  72 S7        29.97S
LEXINGTON      MOCLDY    67  59  77 S12       29.98F
STAPLETON        N/A     61  57  88 MISG        N/A
GOTHENBURG       N/A     68  55  63 SE7         N/A
CALLAWAY         N/A     66  60  80 CALM        N/A
$$

...OBSERVATIONS IN CENTRAL LINCOLN COUNTY AREA...

CITY           SKY/WX    TMP DP  RH WIND       PRES   REMARKS
N.P. AIRPORT   CLOUDY    68  58  70 SE8       29.97F
N.P. DOWNTOWN    N/A     67  58  73 CALM        N/A
N.P. SOUTHEAST   N/A     67  58  72 E3          N/A
$$

...OBSERVATIONS ACROSS THE ROCKIES AND WESTERN HIGH PLAINS...

CITY           SKY/WX    TMP DP  RH WIND       PRES   REMARKS
RAPID CITY     PTCLDY    54  48  80 SE7       29.92R
SCOTTSBLUFF    CLEAR     51  50  96 NW8       30.02R
CHEYENNE       CLEAR     49  42  77 NW6       30.11S
DENVER         PTCLDY    58  47  66 NW9       30.07R
BERTHOUD PASS  FAIR      34  23  64 NW18      30.47F WCI  23
COPPER MTN     CLEAR     43  21  42 W5        30.47R
MONARCH PASS   CLEAR     37  18  44 MISG      30.57S
ASPEN          CLEAR     42  25  50 S7        30.23S
STEAMBOAT      FAIR      43  35  75 CALM      30.20S
LARAMIE        CLEAR     37  33  85 S3        30.17S
CASPER         PTCLDY    51  42  71 SW10      30.01S
$$

...OBSERVATIONS ACROSS THE NORTHERN PLAINS...

CITY           SKY/WX    TMP DP  RH WIND       PRES   REMARKS
BISMARCK       TSTM      67  60  78 SW24G35   29.81S
FARGO          FAIR      73  64  73 S16G26    29.86F
PIERRE         CLOUDY    63  59  87 S9        29.87S
SIOUX FALLS    CLOUDY    74  63  68 S12       29.98S
$$

...OBSERVATIONS ACROSS THE CENTRAL AND SOUTHERN PLAINS...

CITY           SKY/WX    TMP DP  RH WIND       PRES   REMARKS
OMAHA          PTCLDY    71  63  75 SE7       30.03S
GRAND ISLAND   CLOUDY    71  64  78 S10       30.01R
KANSAS CITY    CLOUDY    67  63  87 S7        30.07S
WICHITA        CLOUDY    69  63  81 S12       30.01F
DODGE CITY     CLOUDY    67  54  63 S24G30    30.04R
OKLAHOMA CITY  PTCLDY    70  66  87 SE8       30.06S
DALLAS         PTCLDY    76  67  73 S8        30.04F
AMARILLO       CLOUDY    59  55  87 E17       30.12F
$$




USA.gov is the U.S. government's official web portal to all federal, state and local government web resources and services.